This is the latest recevied weather packets stored in our database for station/object F5ZMN-13. If no packets are shown the sender has not sent any weather packets the latest 10 day(s).
| Time | Temp. | Humidity | Pressure | Rain* | Wind** | Luminosity | Snow |
|---|---|---|---|---|---|---|---|
| 1787858659 | 25.56° C | 64% | 1012.2 hPa | - | - | - | - |
| 1787858043 | 25.56° C | 68% | 1011.9 hPa | - | - | - | - |
| 1787857428 | 25.56° C | 68% | 1011.7 hPa | - | - | - | - |
| 1787856813 | 25.56° C | 68% | 1011.5 hPa | - | - | - | - |
| 1787856198 | 25.56° C | 69% | 1011.5 hPa | - | - | - | - |
| 1787855583 | 25° C | 68% | 1011.3 hPa | - | - | - | - |
| 1787854968 | 25° C | 65% | 1011.1 hPa | - | - | - | - |
| 1787854353 | 25.56° C | 65% | 1011 hPa | - | - | - | - |
| 1787853738 | 25° C | 60% | 1011 hPa | - | - | - | - |
| 1787853123 | 25.56° C | 62% | 1011 hPa | - | - | - | - |
| 1787852508 | 26.11° C | 66% | 1011 hPa | - | - | - | - |
| 1787851893 | 26.11° C | 66% | 1011.1 hPa | - | - | - | - |
| 1787851278 | 25.56° C | 64% | 1010.9 hPa | - | - | - | - |
| 1787850663 | 26.11° C | 64% | 1010.9 hPa | - | - | - | - |
| 1787850048 | 26.11° C | 63% | 1010.9 hPa | - | - | - | - |
| 1787849433 | 26.11° C | 56% | 1010.8 hPa | - | - | - | - |
| 1787848819 | 26.67° C | 58% | 1010.9 hPa | - | - | - | - |
| 1787848203 | 27.22° C | 58% | 1010.8 hPa | - | - | - | - |
| 1787847588 | 27.22° C | 57% | 1010.6 hPa | - | - | - | - |
| 1787846973 | 27.22° C | 57% | 1010.9 hPa | - | - | - | - |
| 1787846358 | 27.78° C | 56% | 1010.9 hPa | - | - | - | - |
| 1787845743 | 27.78° C | 56% | 1011 hPa | - | - | - | - |
| 1787845127 | 27.78° C | 56% | 1010.9 hPa | - | - | - | - |
| 1787844513 | 27.78° C | 55% | 1010.8 hPa | - | - | - | - |
| 1787843897 | 27.78° C | 56% | 1010.8 hPa | - | - | - | - |
* Rain since midnight (hover to see other rain measurements)
** Current wind speed in m/s (hover to see current wind gust speed)